Miscellaneous Local Product
Issued by NWS North Platte, NE

Home | Current Version | Previous Version | Graphics & Text | Print | Product List | Glossary On
Versions: 1 2 3 4 5 6 7 8 9 10 11 12 13 14 15 16 17 18 19 20 21 22 23 24 25 26 27 28 29 30 31 32 33 34 35 36 37 38 39 40 41 42 43 44 45 46 47 48 49 50
286
AXUS43 KLBF 021010
MISLBF


WESTERN AND NORTH CENTRAL NEBRASKA HOURLY WEATHER ROUNDUP
NATIONAL WEATHER SERVICE NORTH PLATTE NE
500 AM CDT MON MAY 02 2016

NOTE: "FAIR" INDICATES FEW OR NO CLOUDS BELOW 12,000 FEET WITH NO
SIGNIFICANT WEATHER AND/OR OBSTRUCTIONS TO VISIBILITY.

NOTE: STATIONS NOT REPORTING VARIABLES SUCH AS SKY/WEATHER OR
PRESSURE ARE PROVIDED BY RAWS AND APRS NETWORKS AND ARE NOT UNDER
NATIONAL WEATHER SERVICE QUALITY CONTROL.

...OBSERVATIONS IN AND NEAR THE EASTERN PANHANDLE OF NEBRASKA...

CITY           SKY/WX    TMP DP  RH WIND       PRES   REMARKS
PINE RIDGE     CLEAR     26  23  88 CALM      30.20F
CHADRON        CLEAR     30  27  88 SW3       30.22S
ALLIANCE       CLEAR     24  22  91 W8        30.20F WCI  15
SIDNEY         CLEAR     30  24  78 W14       30.23S WCI  19
CRESCENT LAKE    N/A     31  29  90 NW6         N/A  WCI  25
BIG SPRINGS      N/A     33  31  94 SW6         N/A  WCI  27
$$

...OBSERVATIONS IN NORTHERN NEBRASKA AND FAR SOUTHERN SOUTH DAKOTA...

CITY           SKY/WX    TMP DP  RH WIND       PRES   REMARKS
WINNER         FAIR      42  31  64 SW6       30.16F
VALENTINE      CLEAR     31  27  85 W8        30.19S WCI  23
THEDFORD         N/A     30  29  96 CALM      30.21S
AINSWORTH      CLEAR     35  32  88 W5        30.18S WCI  31
O`NEILL        CLEAR     38  34  85 W7        30.17S WCI  33
ORD            CLEAR     32  31  96 W5        30.18S WCI  27
BROKEN BOW     CLEAR     30  28  92 CALM      30.19S
VALENTINE NWR    N/A     34  30  86 CALM        N/A
BUTTE            N/A     38  32  80 W3          N/A
HALSEY           N/A     31  29  92 CALM        N/A
CHAMBERS         N/A     37  34  88 W3          N/A
EWING            N/A     35  34  95 CALM        N/A
$$

...OBSERVATIONS IN SOUTHWEST NEBRASKA AND FAR NORTHEAST COLORADO...

CITY           SKY/WX    TMP DP  RH WIND       PRES   REMARKS
HOLYOKE        FAIR      34  30  86 W8        30.23F WCI  27
IMPERIAL       CLEAR     34  29  82 W9        30.23S WCI  27
OGALLALA       CLEAR     30  28  90 CALM      30.22F
NORTH PLATTE   CLEAR     28  27  96 NW5       30.21F WCI  23
MCCOOK         PTCLDY    35  32  88 W6        30.22S WCI  30
LEXINGTON      CLEAR     33  31  93 W7        30.20F WCI  27
PAXTON           N/A     33  30  90 W3          N/A
STAPLETON        N/A     31  29  91 CALM        N/A
GOTHENBURG       N/A     34  32  92 W6          N/A  WCI  29
CALLAWAY         N/A     35  32  89 NW5         N/A  WCI  31
$$

...OBSERVATIONS IN CENTRAL LINCOLN COUNTY AREA...

CITY           SKY/WX    TMP DP  RH WIND       PRES   REMARKS
N.P. AIRPORT   CLEAR     28  27  96 NW5       30.21F WCI  23
N.P. DOWNTOWN    N/A     32  30  92 CALM        N/A
N.P. HILLCREST   N/A     33  30  90 CALM        N/A
$$

...SOME OBSERVATIONS FROM AROUND THE REGION...

CITY           SKY/WX    TMP DP  RH WIND       PRES   REMARKS
DENVER         CLEAR     29  23  78 SW8       30.25F WCI  21
LARAMIE        CLOUDY    16  13  88 S8        30.24S WCI   5
CHEYENNE       CLOUDY    27  20  75 W10       30.23S WCI  17
SCOTTSBLUFF    CLEAR     32  28  85 NW9       30.23F WCI  24
RAPID CITY     CLEAR     35  28  75 W7        30.17F WCI  29
BISMARCK       CLOUDY    46  33  60 SW3       30.08F
PIERRE         PTCLDY    38  32  79 W9        30.14S WCI  31
SIOUX FALLS    CLEAR     35  33  92 CALM      30.14S
OMAHA          CLOUDY    47  43  86 N6        30.13S
GRAND ISLAND   PTCLDY    39  36  89 W8        30.18F WCI  33
KANSAS CITY    CLOUDY    48  44  86 NW7       30.10F
WICHITA        CLOUDY    48  42  80 N12       30.15S
OKLAHOMA CITY  CLOUDY    49  43  80 N12       30.12F
DALLAS         TSTM      54  51  90 N21       30.05F FOG
AMARILLO       CLEAR     37  35  92 NW8       30.24R WCI  31
DODGE CITY     CLOUDY    36  34  92 NW8       30.21S WCI  30
HAYS           CLOUDY    43  34  70 NW6       30.19F
GOODLAND       CLEAR     30  27  88 W8        30.22F WCI  22
$$




USA.gov is the U.S. government's official web portal to all federal, state and local government web resources and services.